TimeHST,TemperatureF,Dew PointF,Humidity,Sea Level PressureIn,VisibilityMPH,Wind Direction,Wind SpeedMPH,Gust SpeedMPH,PrecipitationIn,Events,Conditions,WindDirDegrees,DateUTC
12:53 AM,75.9,73.0,91,29.97,8.0,SSW,9.2,-,N/A,,Mostly Cloudy,210,2012-12-03 10:53:00
1:02 AM,75.2,73.4,94,29.96,8.0,SSW,6.9,-,N/A,,Mostly Cloudy,210,2012-12-03 11:02:00
1:53 AM,75.9,73.0,91,29.96,8.0,SW,5.8,-,N/A,,Partly Cloudy,220,2012-12-03 11:53:00
2:27 AM,75.2,73.4,94,29.94,8.0,SW,4.6,-,N/A,,Mostly Cloudy,220,2012-12-03 12:27:00
2:53 AM,75.9,73.9,94,29.93,8.0,SSW,4.6,-,N/A,,Mostly Cloudy,210,2012-12-03 12:53:00
3:53 AM,75.9,73.9,94,29.93,9.0,SW,3.5,-,N/A,,Overcast,230,2012-12-03 13:53:00
4:00 AM,75.2,73.4,94,29.93,9.0,SW,3.5,-,N/A,,Overcast,220,2012-12-03 14:00:00
4:53 AM,75.9,73.9,94,29.92,9.0,SSW,5.8,-,N/A,,Mostly Cloudy,200,2012-12-03 14:53:00
5:37 AM,75.2,73.4,94,29.92,10.0,SW,5.8,-,N/A,,Mostly Cloudy,220,2012-12-03 15:37:00
5:53 AM,75.9,73.9,94,29.92,10.0,SW,6.9,-,N/A,,Mostly Cloudy,230,2012-12-03 15:53:00
6:53 AM,75.9,73.9,94,29.94,10.0,SW,4.6,-,N/A,,Mostly Cloudy,230,2012-12-03 16:53:00
7:23 AM,75.2,73.4,94,29.94,10.0,SW,8.1,-,N/A,,Scattered Clouds,230,2012-12-03 17:23:00
7:53 AM,77.0,73.9,90,29.95,10.0,SSW,6.9,-,N/A,,Scattered Clouds,210,2012-12-03 17:53:00
8:53 AM,78.1,73.9,87,29.97,10.0,SW,5.8,-,N/A,,Scattered Clouds,230,2012-12-03 18:53:00
9:53 AM,80.1,75.0,85,29.98,10.0,SW,9.2,-,N/A,,Scattered Clouds,220,2012-12-03 19:53:00
10:53 AM,81.0,75.0,82,29.97,10.0,SW,11.5,-,N/A,,Scattered Clouds,220,2012-12-03 20:53:00
11:53 AM,79.0,75.0,88,29.96,10.0,SW,10.4,-,0.00,,Mostly Cloudy,220,2012-12-03 21:53:00
12:53 PM,81.0,73.0,77,29.94,10.0,SSW,12.7,-,N/A,,Scattered Clouds,210,2012-12-03 22:53:00
1:53 PM,81.0,72.0,74,29.92,10.0,SW,10.4,-,N/A,,Scattered Clouds,220,2012-12-03 23:53:00
2:53 PM,81.0,73.0,77,29.92,10.0,SW,10.4,-,N/A,,Scattered Clouds,220,2012-12-04 00:53:00
3:53 PM,80.1,73.0,79,29.93,10.0,SW,9.2,-,N/A,,Mostly Cloudy,230,2012-12-04 01:53:00
4:53 PM,79.0,73.0,82,29.94,10.0,SW,8.1,-,N/A,,Mostly Cloudy,230,2012-12-04 02:53:00
5:53 PM,77.0,72.0,84,29.95,10.0,SW,4.6,-,N/A,,Scattered Clouds,220,2012-12-04 03:53:00
6:53 PM,77.0,71.1,82,29.96,10.0,WNW,4.6,-,N/A,,Scattered Clouds,290,2012-12-04 04:53:00
7:53 PM,75.9,71.1,85,29.99,10.0,Calm,Calm,-,N/A,,Scattered Clouds,0,2012-12-04 05:53:00
8:53 PM,75.9,69.1,79,30.00,10.0,Calm,Calm,-,N/A,,Scattered Clouds,0,2012-12-04 06:53:00
9:53 PM,73.9,70.0,87,30.01,10.0,Calm,Calm,-,N/A,,Scattered Clouds,0,2012-12-04 07:53:00
10:53 PM,75.0,70.0,84,30.01,10.0,Calm,Calm,-,N/A,,Mostly Cloudy,0,2012-12-04 08:53:00
11:53 PM,73.9,70.0,87,30.00,10.0,North,3.5,-,N/A,,Scattered Clouds,10,2012-12-04 09:53:00